Location: Unspecified
(0.0000°N, 0.0000°E)
Time: 12:58:59
(UTC+00:00)

Vanguard 2 - Pass Details

Date: 16 September 2019
Orbit: 554 x 2937 km, 32.9° (Epoch: 13 October)

Event Time Altitude Azimuth Distance (km) Brightness Sun altitude
Rises 12:36:04 0° 307° (NW) 2,776 10.5 79.4°
Reaches altitude 10° 12:38:03 10° 308° (NW) 1,967 9.9 78.9°
Maximum altitude 12:42:24 81° 35° (NE) 764 9.4 77.9°
Drops below altitude 10° 12:48:56 10° 123° (ESE) 2,895 10.5 76.3°
Sets 12:52:24 0° 124° (ESE) 4,227 11.2 75.4°
